Lapse_Rate
7.5 7.5 7.8 7.8 7.4 7.3 6.9 7.1 6.9 7.1 7.0 7.1 7.2 7.2 7.1 7.1 7.0 6.9 6.8 6.9 6.9 6.9 6.8 6.8 6.9 6.9 6.9 6.8 6.7 6.5 6.5 6.4 6.1 5.8 5.7 5.6 5.4 5.3 5.2 5.1 5.0 5.0 5.0
7.5 7.3 7.3 7.6 7.4 7.6 7.4 7.0 6.9 6.9 7.1 6.9 6.7 6.7 6.6 6.7 6.7 7.1 7.0 7.0 6.7 7.0 7.0 6.9 6.9 6.9 6.8 6.8 6.6 6.4 6.2 6.2 5.9 5.6 5.5 5.4 5.3 5.2 5.1 5.0 4.9 4.8 4.8
7.4 7.7 7.2 7.4 7.1 7.2 7.7 7.3 7.0 6.7 6.9 6.5 6.3 6.3 6.6 6.5 6.7 7.0 7.0 6.9 6.9 6.8 6.8 6.9 6.9 6.8 6.7 6.6 6.5 6.2 6.3 5.8 5.7 5.5 5.3 5.2 5.1 5.0 5.0 4.9 4.9 4.8 4.8
7.2 7.5 7.5 7.3 7.2 7.0 7.3 7.5 7.0 6.8 6.6 6.1 6.1 6.4 6.2 6.3 6.4 6.4 6.9 6.8 6.7 6.7 6.6 6.8 6.8 6.8 6.4 6.4 6.2 6.1 6.3 5.8 5.5 5.4 5.2 5.0 4.8 4.7 4.8 4.7 4.6 4.6 4.5
7.3 7.4 7.6 7.4 7.3 7.1 7.3 7.4 7.2 6.7 6.5 6.1 6.0 6.1 5.9 5.8 6.2 6.4 6.6 6.5 6.5 6.5 6.4 6.5 6.6 6.4 6.1 6.1 5.9 6.1 6.1 5.7 5.3 5.3 5.1 4.9 4.8 4.8 4.7 4.6 4.3 4.2 4.2
7.6 7.6 7.5 7.3 7.3 7.2 7.0 6.9 7.2 6.7 6.2 6.2 5.8 5.9 5.8 5.8 6.0 6.0 5.9 6.0 6.2 6.3 6.3 6.2 6.1 6.1 6.2 6.0 6.1 5.9 5.7 5.5 5.2 5.1 5.0 4.9 4.9 4.8 4.7 4.7 4.7 4.9 5.1
7.6 7.7 7.6 7.4 7.3 7.3 7.1 6.8 7.0 6.4 5.6 6.0 5.6 5.1 5.1 5.5 5.7 5.6 5.5 5.7 5.9 5.6 5.7 5.8 5.5 5.9 6.1 6.1 5.9 5.6 5.5 5.3 5.1 4.9 4.9 4.8 4.7 4.6 4.4 4.4 4.6 4.6 4.8
7.8 7.4 7.5 7.6 7.6 7.4 7.4 7.2 7.0 6.5 6.3 5.3 5.2 5.4 5.1 4.9 5.3 5.5 5.4 5.1 5.3 5.4 5.1 5.6 6.0 6.1 5.9 5.9 5.7 5.4 5.3 5.1 5.1 4.9 4.8 4.8 4.5 4.4 4.4 4.4 4.3 4.5 4.7
8.0 7.7 7.6 7.7 7.6 7.4 7.2 7.1 6.9 6.3 6.6 6.3 6.0 6.0 4.8 4.6 4.7 4.6 4.8 5.1 5.3 5.7 5.8 5.9 5.9 6.1 5.8 5.7 5.5 5.2 5.0 5.0 5.0 4.9 4.7 4.5 4.3 4.3 4.3 4.3 4.3 4.3 4.4
7.7 7.6 7.6 7.7 7.3 7.1 7.2 7.4 7.0 6.4 6.7 6.6 6.5 6.2 5.4 5.4 5.2 5.3 5.1 5.5 5.2 5.8 5.9 6.2 6.0 5.8 5.7 5.4 5.3 5.0 5.0 5.0 5.0 4.8 4.6 4.5 4.3 4.4 4.4 4.4 4.3 4.1 4.1
7.5 7.5 7.4 7.2 7.0 6.8 6.6 6.9 6.8 6.7 6.8 6.6 6.6 6.0 5.8 5.8 5.1 5.4 5.4 5.1 5.7 5.7 5.8 6.0 5.8 5.5 5.3 5.0 5.0 5.0 5.0 4.9 4.8 4.6 4.5 4.4 4.6 4.6 4.4 4.3 4.3 4.2 4.0
7.3 7.4 7.2 7.0 6.3 6.5 7.0 6.9 6.8 6.8 6.8 6.7 6.4 6.0 5.8 5.8 5.5 5.5 5.8 5.5 5.6 5.7 6.0 5.8 5.3 5.1 5.1 5.0 4.9 4.8 4.9 4.8 4.6 4.5 4.6 4.7 4.6 4.5 4.4 4.3 4.2 4.0 3.9
7.3 7.2 7.1 7.2 6.7 6.6 6.9 7.1 6.7 6.9 6.9 6.5 6.2 6.1 5.7 5.4 5.6 5.3 6.0 5.6 5.8 5.8 5.6 5.1 5.1 5.0 4.8 4.8 4.8 4.8 4.8 4.6 4.6 4.7 4.7 4.7 4.6 4.4 4.3 4.2 4.1 4.2 4.1
7.5 7.3 7.2 6.8 6.9 6.9 7.0 7.1 6.7 6.8 6.3 5.8 5.8 5.5 5.8 5.3 4.9 5.8 5.8 5.7 5.6 5.3 5.0 4.8 4.9 4.8 4.6 4.9 4.9 4.8 4.7 4.6 4.7 4.7 4.7 4.4 4.3 4.2 4.3 4.2 4.1 4.0 3.9
7.3 7.2 6.7 6.5 6.9 6.6 6.9 6.8 6.7 6.1 6.1 6.0 5.7 5.4 5.7 5.7 5.6 5.9 5.8 5.4 5.1 4.9 4.8 4.8 4.9 4.8 4.9 4.8 4.6 4.6 4.7 4.7 4.8 4.6 4.4 4.3 4.3 4.2 4.2 4.1 3.9 3.7 3.6
6.9 6.5 6.7 6.8 6.5 6.3 6.2 6.2 6.1 5.9 5.9 5.6 6.0 5.9 5.8 5.9 5.9 5.9 5.3 5.1 4.8 4.7 4.8 4.9 4.8 4.7 4.6 4.6 4.7 4.7 4.7 4.8 4.6 4.5 4.3 4.3 4.2 4.2 4.1 3.8 3.6 3.7 3.9
6.5 6.5 6.6 6.3 6.3 6.1 5.7 5.8 5.8 5.9 5.9 5.9 6.0 5.7 5.5 5.7 5.5 5.1 4.9 4.9 4.8 4.9 4.8 4.7 4.5 4.5 4.6 4.7 4.8 4.7 4.6 4.5 4.3 4.3 4.2 4.2 4.3 4.0 3.8 3.7 3.8 4.3 4.9
6.7 6.5 6.5 6.0 6.1 5.9 6.0 6.1 6.1 6.0 6.2 6.1 6.0 5.5 5.5 5.3 4.9 5.0 5.1 4.9 4.8 4.7 4.6 4.4 4.4 4.6 4.7 4.7 4.6 4.5 4.4 4.2 4.2 4.2 4.2 4.2 4.0 3.7 3.5 3.9 4.6 5.3 5.6
6.9 6.7 6.6 6.5 6.6 6.5 6.4 6.1 6.1 6.1 6.2 6.2 5.9 5.5 5.3 5.0 4.9 5.0 4.9 4.8 4.7 4.4 4.2 4.4 4.7 4.7 4.7 4.6 4.5 4.4 4.1 4.1 4.3 4.4 4.4 4.2 3.8 3.9 4.2 4.9 5.4 5.6 5.7
6.8 6.8 6.5 6.3 6.2 6.1 6.3 6.2 6.1 6.0 5.9 5.7 5.6 5.7 5.3 4.9 4.8 4.7 4.6 4.5 4.4 4.4 4.6 4.7 4.7 4.8 4.7 4.5 4.2 4.1 4.2 4.5 4.5 4.2 4.0 3.8 4.1 4.6 5.0 5.3 5.6 5.8 5.9
6.4 6.3 6.3 6.2 6.4 6.4 6.3 6.3 6.0 5.9 5.8 5.7 5.5 5.1 4.9 4.8 4.6 4.5 4.5 4.6 4.6 4.7 4.7 4.8 4.8 4.5 4.4 4.3 4.3 4.3 4.3 4.2 4.1 4.0 4.0 4.2 4.6 4.9 5.2 5.5 5.8 5.9 6.2
6.2 6.2 6.1 6.1 6.0 5.9 5.8 5.7 5.6 5.6 5.5 5.4 5.2 5.1 4.8 4.6 4.6 4.7 4.6 4.6 4.6 4.7 4.7 4.6 4.4 4.4 4.4 4.4 4.3 4.2 4.1 4.0 4.0 4.1 3.9 4.3 4.7 5.2 5.5 5.8 6.0 6.4 6.4
5.8 5.8 5.7 5.7 5.7 5.7 5.6 5.6 5.6 5.5 5.3 5.1 5.0 4.8 4.8 4.7 4.7 4.6 4.6 4.5 4.6 4.7 4.6 4.5 4.5 4.4 4.4 4.2 4.1 4.0 4.0 3.9 3.9 4.0 4.2 4.7 5.1 5.5 5.8 6.0 6.6 6.7 7.1
5.8 5.7 5.7 5.7 5.7 5.6 5.6 5.5 5.4 5.3 5.1 5.0 4.9 4.8 4.6 4.5 4.4 4.5 4.6 4.7 4.6 4.5 4.4 4.5 4.5 4.4 4.2 4.0 4.0 4.1 4.0 3.9 4.2 4.5 5.0 5.3 5.7 5.8 6.0 6.6 6.7 7.1 7.4
5.6 5.5 5.5 5.6 5.5 5.4 5.4 5.3 5.1 5.0 4.9 4.7 4.6 4.5 4.4 4.4 4.5 4.5 4.5 4.5 4.4 4.4 4.5 4.5 4.3 4.2 4.3 4.2 4.1 4.0 4.0 4.1 4.4 4.9 5.3 5.6 5.8 5.9 6.4 6.6 7.0 7.4 7.4
5.8 5.7 5.6 5.5 5.4 5.3 5.2 5.1 5.0 4.8 4.6 4.6 4.5 4.5 4.5 4.4 4.5 4.5 4.4 4.5 4.6 4.6 4.6 4.4 4.2 4.2 4.0 3.9 3.9 4.0 4.0 4.2 4.9 5.3 5.6 5.9 6.0 6.5 6.8 6.9 7.3 7.6 7.4
Wind_Speed
11 11 16 14 11 14 14 16 15 14 9 5 5 4 4 3 3 6 12 14 11 12 10 7 6 6 4 3 2 2 4 4 3 2 3 3 4 4 3 3 3 2 6
6 8 14 14 16 18 17 16 15 14 11 8 4 3 4 2 2 4 8 12 11 10 10 8 4 5 4 5 4 3 1 2 4 3 2 2 3 3 3 2 2 3 6
9 9 13 16 15 15 18 16 16 13 11 9 6 4 4 4 2 2 3 4 13 9 10 10 8 5 4 4 3 3 4 2 3 5 3 2 3 1 2 3 1 4 3
7 9 14 16 17 16 15 16 15 15 8 11 8 11 8 6 3 3 3 4 11 10 10 10 8 6 5 5 3 2 3 3 2 2 3 4 3 2 2 2 3 3 4
11 11 13 17 17 14 16 16 16 15 13 11 11 7 4 2 3 3 6 4 4 10 10 10 9 6 5 4 4 3 4 2 2 2 1 3 3 3 2 3 3 3 2
8 9 7 11 11 11 12 13 17 15 13 11 8 8 8 6 6 4 4 3 3 3 6 8 7 8 7 4 4 3 4 4 4 2 2 2 2 1 1 1 3 3 4
7 9 11 12 13 15 14 14 16 14 11 8 9 7 7 7 9 7 4 5 3 2 4 5 5 3 6 7 7 4 4 3 3 2 2 1 1 1 1 1 3 3 3
8 11 12 14 15 14 14 15 15 15 14 10 8 7 6 5 5 4 4 3 3 3 5 6 7 8 8 8 7 3 3 4 3 3 3 1 1 0 2 2 2 3 2
8 10 9 11 15 15 15 15 13 12 12 11 9 7 6 4 7 6 4 4 4 4 5 7 6 7 7 7 6 3 3 3 2 2 2 1 2 2 2 2 3 2 4
5 7 9 10 11 13 14 15 13 15 13 12 10 9 9 6 5 6 5 6 5 5 6 6 5 5 6 5 6 3 2 3 2 2 2 2 2 4 3 3 2 3 3
6 6 7 7 9 11 13 14 13 14 12 10 9 8 7 8 7 8 7 5 6 6 6 6 6 5 5 4 4 3 3 3 4 4 4 5 4 4 4 3 2 3 2
8 8 7 10 7 9 12 12 12 13 11 10 10 9 8 6 7 7 8 6 6 6 6 6 5 5 4 4 4 3 4 6 5 5 5 6 4 5 5 3 4 3 3
7 7 8 8 8 8 8 10 11 11 11 10 10 9 9 8 7 6 8 6 6 6 6 6 5 5 4 5 5 5 6 5 4 5 5 6 6 5 3 3 4 3 3
5 8 8 7 7 9 8 9 10 11 12 12 10 8 9 10 7 7 7 7 6 7 6 5 5 5 5 6 6 5 6 5 5 5 5 5 5 5 6 5 5 4 4
6 6 7 7 7 9 8 9 9 10 10 11 10 9 8 9 7 9 7 6 6 6 6 6 6 6 5 4 5 6 5 5 6 6 5 4 8 12 11 6 5 5 3
7 7 7 7 7 6 6 6 9 7 8 9 9 9 10 9 7 7 7 7 6 6 6 6 6 6 3 9 9 7 4 5 5 5 5 5 6 9 16 16 16 13 6
7 7 8 6 6 4 5 5 8 9 10 10 10 9 8 9 7 7 7 7 6 6 6 6 6 5 4 6 6 8 4 2 3 4 5 5 4 11 8 13 17 13 15
6 6 6 5 5 4 6 8 7 8 10 10 9 8 8 8 7 7 7 6 5 6 5 5 5 4 2 4 5 5 2 2 4 5 5 6 6 8 12 8 5 6 6
6 5 5 4 5 6 6 9 8 8 9 9 9 8 9 8 7 7 7 5 5 4 3 4 5 4 4 4 2 4 2 3 5 5 6 6 6 14 17 10 7 5 6
6 7 6 5 7 5 7 10 8 9 8 8 8 8 7 8 7 7 6 3 4 4 4 5 5 7 3 6 8 5 2 3 4 5 5 12 12 17 18 10 5 7 7
8 7 7 6 6 6 9 9 8 8 6 8 9 8 7 7 7 6 3 4 5 5 5 5 4 4 6 6 9 8 2 3 3 4 3 4 16 17 16 16 6 8 9
7 7 7 6 6 6 10 9 9 6 8 9 9 8 7 5 5 7 5 6 6 6 4 3 3 3 4 8 7 9 9 10 4 4 4 5 16 15 15 11 15 16 11
7 5 7 7 5 6 8 10 6 8 9 9 8 6 6 5 5 6 6 4 4 4 2 3 3 3 3 3 7 8 10 10 7 3 8 13 14 13 9 12 14 12 4
6 5 7 7 6 5 6 8 8 8 9 9 7 6 6 6 5 4 4 4 3 3 3 3 2 2 3 4 3 3 3 8 6 4 5 8 10 10 9 7 7 4 4
6 7 7 7 6 6 7 7 8 9 8 7 6 5 4 5 4 3 3 3 2 3 2 1 2 2 3 3 7 7 5 4 7 4 3 3 3 5 5 5 5 5 5
7 6 6 7 7 7 8 7 7 8 9 7 5 4 4 4 3 4 3 7 6 4 5 3 2 2 5 8 9 11 12 11 12 3 2 4 4 5 6 6 7 7 8
Wind_Direction
253 208 197 187 175 171 170 178 169 164 153 157 154 151 160 153 156 161 163 156 163 147 142 134 123 120 109 106 82 87 76 29 17 71 29 27 32 50 50 74 99 56 26
251 206 192 177 174 173 174 177 178 167 163 163 156 143 137 128 142 154 156 160 165 155 144 141 138 132 116 99 75 71 89 46 24 115 85 53 340 22 20 17 42 32 20
212 213 182 178 175 175 175 173 175 172 161 151 123 95 85 83 96 138 129 162 156 160 147 146 139 128 121 119 108 102 106 124 24 53 134 91 219 343 334 0 50 41 10
194 196 187 180 179 181 172 168 168 164 162 149 153 164 170 167 166 153 134 144 154 145 145 139 134 121 120 119 117 129 110 109 130 45 45 64 124 156 325 321 300 309 3
183 187 190 186 181 165 168 166 163 165 162 159 164 162 136 127 119 115 133 131 125 138 143 137 132 123 118 114 123 108 103 99 125 120 98 63 57 68 118 282 311 328 305
187 175 188 157 151 144 157 161 159 163 164 158 146 148 150 146 136 127 132 127 111 112 124 129 139 126 126 133 115 107 102 103 97 90 93 118 129 196 110 268 288 266 302
181 153 150 146 148 153 157 162 161 158 159 154 140 143 153 152 150 143 149 151 124 120 131 130 113 119 121 118 118 111 108 109 103 117 101 86 93 124 181 189 264 261 290
177 169 164 154 153 158 158 162 164 154 154 157 139 131 135 148 111 129 137 134 135 145 152 119 133 123 121 113 118 109 105 102 102 101 72 67 333 203 199 216 213 299 278
171 147 143 147 153 158 161 162 159 153 151 151 132 129 117 143 145 135 149 148 134 128 127 134 125 114 123 123 119 111 104 103 101 78 46 17 290 277 259 238 202 203 294
105 121 140 144 157 162 157 154 155 153 155 152 146 151 141 153 128 131 139 124 123 124 133 111 117 127 119 122 100 100 108 102 66 62 5 326 298 304 304 283 263 217 235
50 66 138 132 146 149 149 144 143 142 142 149 145 146 146 142 140 116 124 107 119 128 122 128 130 131 118 104 95 96 90 61 38 20 4 333 323 320 319 314 293 280 250
59 72 67 112 127 141 142 144 142 140 143 143 134 128 112 114 114 120 113 126 118 114 127 119 120 113 107 99 87 73 62 60 37 10 3 338 342 331 327 326 315 272 266
64 79 80 70 98 107 123 134 135 129 123 125 120 123 121 116 103 124 110 116 115 118 96 106 113 104 99 93 82 81 65 46 32 8 356 333 341 329 301 296 290 286 290
56 87 82 88 93 99 114 112 117 128 130 126 118 129 124 121 142 121 107 112 109 103 100 103 104 96 99 91 83 70 54 34 13 3 352 334 320 302 299 290 283 275 282
69 75 82 82 82 91 99 105 112 105 120 120 136 130 126 116 109 96 103 105 104 106 112 102 81 89 90 97 83 67 49 23 5 358 341 322 335 354 343 332 301 293 268
104 84 84 94 86 90 88 99 111 113 115 123 116 117 105 103 106 107 109 103 103 101 94 81 90 79 71 85 79 87 55 26 10 328 336 347 345 336 339 331 320 316 309
126 123 115 108 120 141 133 148 128 124 122 117 106 102 114 111 114 115 110 106 101 96 89 84 84 72 54 69 86 82 60 30 337 352 341 331 335 338 318 312 312 312 320
128 123 126 125 123 140 116 116 105 113 115 111 111 120 121 115 112 105 104 103 98 99 95 85 79 78 29 37 92 115 125 23 349 332 326 325 319 317 317 312 314 309 293
132 126 117 104 115 112 114 113 107 109 111 119 123 129 114 117 116 109 111 98 98 92 89 81 66 57 15 346 63 111 51 11 342 325 315 327 316 304 319 337 327 314 304
124 128 124 109 116 122 122 116 117 118 129 130 123 111 111 114 110 117 113 107 106 98 82 75 50 51 36 24 35 35 43 345 325 317 304 312 319 319 340 335 340 327 321
131 122 117 123 124 115 114 112 114 118 123 114 104 100 102 110 117 114 105 110 94 86 71 67 56 64 45 10 5 3 31 301 306 296 298 293 318 335 339 339 328 313 351
128 129 126 128 129 120 121 121 119 124 109 107 107 103 109 112 115 111 98 88 93 89 84 88 54 32 16 5 358 350 333 337 319 294 297 297 331 338 336 334 335 340 346
145 138 133 124 112 107 121 123 135 122 114 107 106 108 108 112 114 109 110 95 98 115 107 76 49 7 352 331 322 331 338 330 331 318 346 341 336 339 339 338 343 347 321
148 132 126 128 130 126 114 127 131 120 116 119 123 127 117 108 103 100 112 128 138 114 72 49 359 307 292 293 292 258 294 324 326 21 339 345 348 346 341 339 325 317 318
148 150 148 149 146 137 129 134 133 129 127 125 126 124 120 126 122 122 149 132 144 133 141 217 229 259 300 279 341 351 340 341 336 10 337 325 332 330 328 328 323 325 317
152 148 144 141 146 143 142 139 140 138 135 130 136 149 135 134 135 135 90 63 85 88 87 45 3 290 331 343 340 352 354 352 346 8 313 329 328 326 325 326 331 336 329